Location: Bamazo
(6.7448°N, 10.8189°W)
Time: 16:43:31
(UTC+00:00)

Cosmos 2151 Rocket - Pass Details

Date: 18 September 2020
Orbit: 618 x 642 km, 82.5° (Epoch: 24 October)

Event Time Altitude Azimuth Distance (km) Brightness Sun altitude
Rises 20:10:21 0° 186° (S) 2,887 7.0 -22.9°
Reaches altitude 10° 20:12:34 10° 188° (S) 1,984 6.2 -23.5°
Maximum altitude 20:16:57 78° 273° (W) 640 3.6 -24.6°
Drops below altitude 10° 20:21:22 10° 0° (N) 1,993 6.2 -25.7°
Sets 20:23:36 0° 2° (N) 2,902 7.0 -26.2°
